Weather History for San Diego Montgomery, CA

Change the Weather History Date:

Thursday, April 24, 2014

  Actual Average Record
Temperature  
Mean Temperature 62 °F -  
Max Temperature 72 °F 67 °F 88 °F (2001)
Min Temperature 53 °F 51 °F 50 °F (2007)
Degree Days  
Heating Degree Days 2    
Growing Degree Days 12 (Base 50)    
Moisture  
Dew Point 51 °F    
Average Humidity 68    
Maximum Humidity 84    
Minimum Humidity 44    
Precipitation  
Precipitation 0.00 in - - ()
Sea Level Pressure  
Sea Level Pressure 29.95 in    
Wind  
Wind Speed 4 mph (SSW)    
Max Wind Speed 12 mph    
Max Gust Speed -    
Visibility 10 miles    
Events      
Averages and records for this station are not official NWS values.
T = Trace of Precipitation, MM = Missing Value Source: NWS Daily Summary

Daily Weather History Graph

Daily Weather History Graph

Search for Another Location

Airport:

Trip Planner

Search our weather history database for the weather conditions in past years. The results will help you decide how hot, cold, wet, or windy it might be!

Date:

Astronomy

Apr. 24, 2014 Rise Set
Actual Time 6:08 AM PDT 7:25 PM PDT
Civil Twilight 5:42 AM PDT 7:51 PM PDT
Nautical Twilight 5:11 AM PDT 8:22 PM PDT
Astronomical Twilight 4:39 AM PDT 8:54 PM PDT
Moon 3:06 AM PDT (4/24) 3:00 PM PDT (4/24)
Length of Visible Light 14h 08m
Length of Day
13h 16m
Waning Crescent, 23% of the Moon is Illuminated
Apr 24
Waning Crescent
Apr 28
New
May 6
First Quarter
May 14
Full
May 21
Last Quarter

Hourly Weather History & Observations

Time (PDT) Temp. Dew Point Humidity Pressure Visibility Wind Dir Wind Speed Gust Speed Precip Events Conditions
12:53 AM 59.0 °F 52.0 °F 78% 29.95 in 10.0 mi Calm Calm - N/A   Clear
1:53 AM 57.9 °F 51.1 °F 78% 29.95 in 10.0 mi SSW 3.5 mph - N/A   Clear
2:53 AM 57.0 °F 50.0 °F 77% 29.94 in 10.0 mi Calm Calm - N/A   Clear
3:53 AM 57.0 °F 48.9 °F 74% 29.95 in 10.0 mi Calm Calm - N/A   Clear
4:53 AM 53.1 °F 48.0 °F 83% 29.94 in 10.0 mi East 3.5 mph - N/A   Clear
5:53 AM 54.0 °F 48.9 °F 83% 29.95 in 10.0 mi Calm Calm - N/A   Clear
6:53 AM 55.9 °F 50.0 °F 80% 29.96 in 10.0 mi Calm Calm - N/A   Clear
7:53 AM 59.0 °F 51.1 °F 75% 29.98 in 10.0 mi South 3.5 mph - N/A   Clear
8:53 AM 62.1 °F 51.1 °F 67% 29.99 in 10.0 mi South 4.6 mph - N/A   Clear
9:53 AM 66.0 °F 52.0 °F 60% 29.98 in 10.0 mi South 5.8 mph - N/A   Clear
10:53 AM 69.1 °F 51.1 °F 53% 29.98 in 10.0 mi West 8.1 mph - N/A   Clear
11:53 AM 70.0 °F 53.1 °F 55% 29.98 in 10.0 mi SW 8.1 mph - N/A   Clear
12:53 PM 72.0 °F 51.1 °F 48% 29.96 in 10.0 mi WSW 10.4 mph - N/A   Clear
1:53 PM 71.1 °F 48.0 °F 44% 29.95 in 10.0 mi SW 8.1 mph - N/A   Clear
2:53 PM 72.0 °F 50.0 °F 46% 29.94 in 10.0 mi WSW 11.5 mph - N/A   Clear
3:53 PM 71.1 °F 53.1 °F 53% 29.93 in 10.0 mi WSW 8.1 mph - N/A   Clear
4:53 PM 69.1 °F 50.0 °F 51% 29.92 in 10.0 mi SW 8.1 mph - N/A   Clear
5:53 PM 66.9 °F 50.0 °F 54% 29.92 in 10.0 mi South 9.2 mph - N/A   Clear
6:53 PM 64.0 °F 53.1 °F 67% 29.93 in 10.0 mi SSW 9.2 mph - N/A   Clear
7:53 PM 61.0 °F 54.0 °F 78% 29.94 in 10.0 mi SSW 5.8 mph - N/A   Clear
8:53 PM 60.1 °F 55.0 °F 83% 29.96 in 10.0 mi South 5.8 mph - N/A   Clear
9:53 PM 60.1 °F 54.0 °F 80% 29.97 in 10.0 mi Calm Calm - N/A   Partly Cloudy
10:53 PM 59.0 °F 54.0 °F 83% 29.96 in 10.0 mi ESE 5.8 mph - N/A   Partly Cloudy
11:53 PM 57.9 °F 53.1 °F 84% 29.95 in 10.0 mi SE 5.8 mph - N/A   Clear